Simultaneous Nadir Overpasses (SNOs) Predictions

Prediction of SNOs between FY3D and AQUA Satellite Orbit:

Table of predicted SNOs for the next 14.0 days since TLE Epoch: 7/6/2024
Index Date (FY3D) Time (FY3D) Lat,Lon (FY3D) SZA (FY3D ) Date (AQUA) Time (AQUA) Lat,Lon (AQUA) SZA (AQUA ) Distance(km) Time Diff (sec)
1 07/06/2024 19:32:31 -79.51, 47.79 122.41 07/06/2024 19:33:15 -79.50, 47.85 122.43 1.35 44
2 07/06/2024 20:23:08 79.23,-142.58 57.19 07/06/2024 20:22:30 79.24,-142.66 57.21 1.59 38
3 07/09/2024 07:36:08 79.49, 47.14 57.85 07/09/2024 07:36:44 79.49, 47.14 57.84 0.02 36
4 07/09/2024 08:26:44 -79.19,-143.11 122.58 07/09/2024 08:25:58 -79.20,-143.23 122.56 2.72 46
5 07/11/2024 19:39:45 -79.48, 46.32 121.83 07/11/2024 19:40:12 -79.49, 46.33 121.83 0.35 27
6 07/11/2024 20:30:24 79.27,-144.59 57.87 07/11/2024 20:29:28 79.27,-144.50 57.87 2.03 56
7 07/14/2024 07:43:20 79.41, 46.13 58.43 07/14/2024 07:43:37 79.41, 46.05 58.43 1.74 17
8 07/14/2024 08:33:57 -79.14,-144.42 121.95 07/14/2024 08:32:52 -79.15,-144.56 121.92 3.12 65
9 07/16/2024 19:46:57 -79.41, 45.21 121.15 07/16/2024 19:47:03 -79.41, 45.24 121.16 0.80 6
10 07/16/2024 20:35:08 72.70,-120.32 51.59 07/16/2024 20:33:56 72.37,-122.58 51.16 84.26 72
11 07/19/2024 07:02:03 -80.88,-170.54 114.12 07/19/2024 07:03:16 -81.62,-171.33 113.81 82.67 73



Historial Predications of SNOs between FY3D and AQUA
